PBO Station Position Time Series. Reference Frame : NAM14
Format Version,1.1.0
4-character ID,P449
Station name,Olsen_BrosWA2006
Begin Date, 2006-02-25
End Date, 2019-10-07
Release Date, 2019-10-08
Reference position, 46.2597921552 North Latitude, -119.6309971316 East Longitude, 208.44304 meters elevation,
Date, North (mm), East (mm), Vertical (mm), North Std. Deviation (mm), East Std. Deviation (mm),              Vertical Std. Deviation (mm), Quality,
2006-02-25,0.00, 0.00, 0.00, 2.21, 1.54, 6.97, repro,
2006-02-26,-0.59, 0.42, 8.78, 2.24, 1.55, 7.03, repro,
2006-02-27,-1.01, 0.66, 16.63, 2.25, 1.54, 7.05, repro,
2006-02-28,-1.98, 0.29, 13.85, 2.26, 1.56, 7.11, repro,
2006-03-01,-1.82, 0.43, 12.81, 2.31, 1.59, 7.21, repro,
2006-03-02,-1.82, 1.45, 5.91, 2.20, 1.53, 6.89, repro,
2006-03-03,-0.38, 0.39, 8.83, 2.30, 1.56, 7.22, repro,
2006-03-04,0.39, 0.54, 6.32, 2.24, 1.54, 7.03, repro,
2006-03-05,-1.86, 0.75, 9.08, 2.21, 1.54, 7.00, repro,
2006-03-06,-0.87, 0.41, 14.10, 2.20, 1.54, 6.97, repro,
2006-03-07,-0.24, 0.52, 8.26, 2.19, 1.53, 6.91, repro,
2006-03-08,-0.09, 0.03, 10.15, 2.21, 1.53, 6.93, repro,
2006-03-09,-2.19, -0.52, 17.88, 2.27, 1.59, 7.16, repro,
2006-03-10,-0.50, -0.70, 18.47, 2.22, 1.54, 7.00, repro,
2006-03-11,0.26, -0.29, 9.07, 2.25, 1.56, 7.14, repro,
2006-03-12,-0.24, 0.06, 9.63, 2.23, 1.56, 7.05, repro,
2006-03-13,0.98, -0.42, 5.31, 2.25, 1.56, 7.10, repro,
2006-03-14,-0.55, 0.02, 11.46, 2.26, 1.57, 7.14, repro,
2006-03-15,-1.57, 0.12, 9.91, 2.26, 1.57, 7.16, repro,
2006-03-16,-0.20, 0.21, 1.89, 2.32, 1.60, 7.36, repro,
2006-03-17,-1.00, 0.33, 2.67, 2.31, 1.60, 7.34, repro,
2006-03-18,0.93, -0.24, 2.25, 2.27, 1.58, 7.24, repro,
2006-03-19,-0.36, 0.08, 4.35, 2.27, 1.58, 7.21, repro,
2006-03-20,-1.15, -0.25, 8.15, 2.26, 1.57, 7.18, repro,
2006-03-21,-0.13, 0.30, 8.19, 2.25, 1.57, 7.14, repro,
2006-03-22,-0.28, -0.22, 5.29, 2.25, 1.59, 7.16, repro,
2006-03-23,-0.12, 0.42, -0.06, 2.30, 1.59, 7.17, repro,
2006-03-24,-1.74, 0.23, 9.31, 2.32, 1.61, 7.26, repro,
2006-03-25,-1.54, 0.26, 10.62, 2.32, 1.62, 7.33, repro,
2006-03-26,-1.35, -1.42, 7.95, 2.34, 1.61, 7.32, repro,
2006-03-27,0.05, 0.01, 8.26, 2.30, 1.61, 7.22, repro,
2006-03-28,-1.89, 1.45, 13.75, 2.21, 1.57, 7.01, repro,
2006-03-29,-1.20, -0.17, 14.85, 2.18, 1.55, 6.96, repro,
2006-03-30,-1.56, 0.03, 12.69, 2.17, 1.55, 6.93, repro,
2006-03-31,-1.20, -0.42, 10.04, 2.19, 1.56, 7.05, repro,
2006-04-01,-1.72, -0.11, 8.92, 2.20, 1.56, 7.05, repro,
2006-04-02,-0.75, 0.58, 4.29, 2.17, 1.55, 6.95, repro,
2006-04-03,-1.38, 0.39, 6.14, 2.17, 1.55, 6.91, repro,
2006-04-04,-1.83, -0.17, 5.76, 2.16, 1.55, 6.91, repro,
2006-04-05,-1.95, 0.42, 13.97, 2.19, 1.56, 7.03, repro,
2006-04-06,-2.53, -1.10, 8.30, 2.26, 1.60, 7.26, repro,
2006-04-07,-0.45, 0.08, 4.50, 2.28, 1.60, 7.31, repro,
2006-04-08,-2.39, -0.12, 10.76, 2.22, 1.55, 7.02, repro,
2006-04-09,-1.25, -0.48, 9.01, 2.15, 1.54, 6.89, repro,
2006-04-10,-1.95, -0.03, 11.55, 2.19, 1.56, 7.02, repro,
2006-04-11,-2.18, 0.12, 9.93, 2.27, 1.59, 7.33, repro,
2006-04-12,-0.55, 1.08, 10.96, 2.25, 1.59, 7.25, repro,
2006-04-13,-1.41, -1.17, 7.82, 2.16, 1.55, 6.94, repro,
2006-04-14,-1.01, 0.06, 12.02, 2.17, 1.54, 6.98, repro,
2006-04-15,-0.90, 0.28, 21.40, 2.23, 1.58, 7.17, repro,
2006-04-16,-0.55, -0.36, 13.06, 2.18, 1.57, 7.09, repro,
2006-04-17,-0.97, 0.29, 9.48, 2.20, 1.56, 7.06, repro,
2006-04-18,-0.19, -0.43, 2.76, 2.18, 1.55, 7.00, repro,
2006-04-19,-0.37, 0.07, 5.36, 2.16, 1.54, 6.93, repro,
2006-04-20,-0.51, 0.07, 10.38, 2.46, 1.76, 7.85, repro,
2006-04-21,-1.80, 0.13, 12.81, 2.21, 1.59, 7.14, repro,
2006-04-22,0.18, 0.28, 5.44, 2.23, 1.62, 7.26, repro,
2006-04-23,0.81, 0.04, 3.34, 2.22, 1.60, 7.19, repro,
2006-04-24,-0.75, 0.14, 5.93, 2.20, 1.58, 7.08, repro,
2006-04-25,-1.03, 0.74, 9.77, 2.21, 1.59, 7.13, repro,
2006-04-26,-0.84, 0.88, 9.33, 2.23, 1.59, 7.17, repro,
2006-04-27,-1.44, 0.50, 6.67, 2.27, 1.61, 7.29, repro,
2006-04-28,-0.39, 0.63, 3.07, 2.26, 1.57, 7.16, repro,
2006-04-29,-0.13, 0.42, 4.08, 2.19, 1.55, 7.02, repro,
2006-04-30,-0.64, -0.87, 8.13, 2.19, 1.55, 7.01, repro,
2006-05-01,-0.74, -0.73, 6.80, 2.18, 1.55, 7.01, repro,
2006-05-02,-1.53, 0.05, 2.55, 2.18, 1.55, 7.04, repro,
2006-05-03,-0.58, -0.22, 6.67, 2.19, 1.56, 7.09, repro,
2006-05-04,-1.29, -0.29, 6.63, 2.18, 1.54, 6.99, repro,
2006-05-05,-1.83, 0.72, 9.37, 2.17, 1.54, 6.96, repro,
2006-05-06,-1.58, -0.24, 13.56, 2.19, 1.55, 7.03, repro,
2006-05-07,-2.39, 0.07, 15.37, 2.18, 1.55, 7.02, repro,
2006-05-08,-1.35, 0.21, 11.37, 2.18, 1.55, 7.03, repro,
2006-05-09,-0.40, 0.24, 11.14, 2.26, 1.58, 7.13, repro,
2006-05-10,-1.13, 0.50, 4.49, 2.17, 1.54, 6.97, repro,
2006-05-11,-2.64, 0.67, 6.44, 2.19, 1.54, 7.03, repro,
2006-05-12,-1.70, -1.62, 8.83, 2.19, 1.55, 7.08, repro,
2006-05-13,0.03, -0.10, 5.53, 2.19, 1.55, 7.08, repro,
2006-05-14,-1.32, 0.54, 4.18, 2.17, 1.54, 7.02, repro,
2006-05-15,-0.22, 0.34, 4.42, 2.17, 1.53, 6.96, repro,
2006-05-16,-0.88, 0.48, 5.09, 2.23, 1.58, 7.26, repro,
2006-05-17,-1.50, 0.32, 5.92, 2.24, 1.63, 7.47, repro,
2006-05-18,-1.84, -0.03, 16.43, 2.22, 1.56, 7.10, repro,
2006-05-19,-1.46, -0.87, 13.94, 2.29, 1.60, 7.38, repro,
2006-05-20,-2.50, 1.44, 15.21, 2.33, 1.61, 7.37, repro,
2006-05-21,-1.42, 0.11, 16.90, 2.26, 1.56, 7.09, repro,
2006-05-22,-1.56, -1.40, 16.87, 2.28, 1.61, 7.32, repro,
2006-05-23,-0.71, -0.30, 8.74, 2.26, 1.58, 7.18, repro,
2006-05-24,-1.34, 0.27, 10.57, 2.27, 1.58, 7.23, repro,
2006-05-25,-0.86, -0.07, 6.72, 2.34, 1.61, 7.42, repro,
2006-05-26,-0.61, -0.67, 15.13, 2.33, 1.61, 7.35, repro,
2006-05-27,-1.52, -0.36, 16.67, 2.25, 1.57, 7.18, repro,
2006-05-28,-1.58, -0.95, 12.45, 2.31, 1.63, 7.37, repro,
2006-05-29,-0.49, 0.10, 10.05, 2.27, 1.59, 7.28, repro,
2006-05-30,-0.54, 0.77, 5.22, 2.33, 1.63, 7.46, repro,
2006-05-31,-0.24, 0.16, 12.55, 2.27, 1.57, 7.17, repro,
2006-06-01,-1.02, 0.09, 7.31, 2.31, 1.60, 7.29, repro,
2006-06-02,-2.35, -1.12, 3.57, 2.43, 1.67, 7.69, repro,
2006-06-03,-0.95, 0.77, 7.36, 2.32, 1.62, 7.40, repro,
2006-06-04,-0.33, 0.75, 9.93, 2.35, 1.62, 7.44, repro,
2006-06-05,-2.33, 0.29, 10.98, 2.31, 1.60, 7.33, repro,
2006-06-06,-2.11, 1.83, 9.67, 2.30, 1.59, 7.22, repro,
2006-06-07,-1.19, 0.02, 9.99, 2.30, 1.61, 7.31, repro,
2006-06-08,-0.92, -0.40, 9.80, 2.26, 1.58, 7.19, repro,
2006-06-09,-0.64, 0.59, 9.82, 2.27, 1.59, 7.21, repro,
2006-06-10,0.22, -0.40, 11.14, 2.28, 1.58, 7.20, repro,
2006-06-11,-0.67, 0.05, 11.44, 2.28, 1.58, 7.21, repro,
2006-06-12,-1.74, -0.18, 10.84, 2.27, 1.58, 7.16, repro,
2006-06-13,0.09, -0.69, 8.06, 2.33, 1.61, 7.38, repro,
2006-06-14,-1.26, -0.16, 14.31, 2.24, 1.58, 7.14, repro,
2006-06-15,-1.36, 0.59, 12.09, 2.24, 1.57, 7.13, repro,
2006-06-16,-1.26, -0.35, 9.50, 2.34, 1.63, 7.48, repro,
2006-06-17,-2.05, -0.21, 13.54, 2.26, 1.57, 7.15, repro,
2006-06-18,-1.75, -0.20, 17.43, 2.29, 1.66, 7.53, repro,
2006-06-19,-3.15, 0.63, 8.79, 2.36, 1.66, 7.56, repro,
2006-06-20,-0.46, -0.43, 9.04, 2.29, 1.63, 7.42, repro,
2006-06-21,-1.02, 0.38, 12.72, 2.29, 1.63, 7.39, repro,
2006-06-22,-1.27, 1.56, 7.79, 2.29, 1.62, 7.35, repro,
2006-06-23,-0.68, 0.96, 6.09, 2.29, 1.62, 7.36, repro,
2006-06-24,-0.65, 0.56, 6.14, 2.28, 1.63, 7.35, repro,
2006-06-25,0.13, -0.28, 3.17, 2.29, 1.63, 7.38, repro,
2006-06-26,-0.79, 0.85, 8.85, 2.28, 1.63, 7.38, repro,
2006-06-27,-1.31, 0.17, 14.29, 2.34, 1.69, 7.50, repro,
2006-06-28,-1.41, 0.05, 10.44, 2.36, 1.69, 7.55, repro,
2006-06-29,-2.57, 0.37, 17.01, 2.21, 1.59, 7.22, repro,
2006-06-30,0.24, 0.19, 6.93, 2.25, 1.58, 7.24, repro,
2006-07-01,-0.10, -1.15, 20.10, 2.25, 1.59, 7.32, repro,
2006-07-02,-1.30, 0.32, 15.26, 2.28, 1.62, 7.42, repro,
2006-07-03,-0.41, 1.58, 5.51, 2.26, 1.58, 7.29, repro,
2006-07-04,-2.36, 0.16, 18.08, 2.28, 1.58, 7.31, repro,
2006-07-05,-3.12, 0.82, 3.80, 2.32, 1.65, 7.46, repro,
2006-07-06,-0.70, 0.72, 8.43, 2.29, 1.64, 7.49, repro,
2006-07-07,0.41, 1.01, 3.88, 2.24, 1.58, 7.25, repro,
2006-07-08,-0.07, 0.98, 8.00, 2.26, 1.58, 7.30, repro,
2006-07-09,-1.36, 0.97, 15.16, 2.26, 1.58, 7.32, repro,
2006-07-10,-1.05, 0.52, 9.75, 2.24, 1.59, 7.30, repro,
2006-07-11,-0.88, -0.47, 19.07, 2.24, 1.59, 7.32, repro,
2006-07-12,-0.24, -1.90, 15.33, 2.24, 1.59, 7.34, repro,
2006-07-13,-2.28, 1.82, 14.00, 2.35, 1.62, 7.50, repro,
2006-07-14,-0.96, -0.86, 10.65, 2.25, 1.57, 7.27, repro,
2006-07-15,0.52, -0.48, 12.27, 2.25, 1.58, 7.29, repro,
2006-07-16,-2.54, 0.99, 11.68, 2.24, 1.58, 7.28, repro,
2006-07-17,-1.02, 0.81, 20.24, 2.28, 1.65, 7.57, repro,
2006-07-18,-1.43, -0.26, 13.71, 2.19, 1.57, 7.14, repro,
2006-07-19,0.71, 0.55, 13.47, 2.22, 1.59, 7.23, repro,
2006-07-20,-1.45, 0.86, 9.00, 2.20, 1.54, 7.04, repro,
2006-07-21,-0.28, 1.40, 5.14, 2.19, 1.55, 7.03, repro,
2006-07-22,0.00, 1.42, 6.17, 2.19, 1.55, 7.05, repro,
2006-07-23,-0.46, 0.83, 22.24, 2.19, 1.57, 7.12, repro,
2006-07-24,-1.95, 0.86, 20.08, 2.21, 1.56, 7.15, repro,
2006-07-25,0.85, 0.96, 7.60, 2.19, 1.55, 7.04, repro,
2006-07-26,-1.20, 0.37, 18.89, 2.19, 1.56, 7.03, repro,
2006-07-27,-1.95, 0.25, 15.53, 2.16, 1.55, 7.02, repro,
2006-07-28,-0.18, -0.37, 17.53, 2.18, 1.57, 7.11, repro,
2006-07-29,0.19, -0.75, 15.31, 2.18, 1.57, 7.12, repro,
2006-07-30,0.15, -0.35, 10.68, 2.22, 1.60, 7.17, repro,
2006-07-31,-1.41, 0.52, 16.82, 2.17, 1.55, 6.98, repro,
2006-08-01,-0.43, 1.31, 14.76, 2.17, 1.54, 7.00, repro,
2006-08-02,-1.09, 0.72, 12.08, 2.22, 1.60, 7.31, repro,
2006-08-03,0.21, 0.31, 15.73, 2.23, 1.61, 7.36, repro,
2006-08-04,-0.66, -1.06, 14.55, 2.28, 1.63, 7.41, repro,
2006-08-05,-1.00, -1.07, 13.39, 2.26, 1.65, 7.40, repro,
2006-08-06,-0.00, 1.39, 17.00, 2.22, 1.59, 7.25, repro,
2006-08-07,0.71, 0.06, 20.96, 2.23, 1.61, 7.31, repro,
2006-08-08,0.64, -1.34, 25.79, 2.38, 1.69, 7.75, repro,
2006-08-09,-0.69, -0.54, 22.10, 2.18, 1.56, 7.08, repro,
2006-08-10,-1.11, 1.25, 22.76, 2.18, 1.56, 7.13, repro,
2006-08-11,-0.04, -0.49, 15.62, 2.27, 1.60, 7.38, repro,
2006-08-12,-1.28, 0.77, 17.13, 2.25, 1.62, 7.26, repro,
2006-08-13,-1.45, 0.33, 22.52, 2.19, 1.56, 7.08, repro,
2006-08-14,-1.59, 0.56, 20.56, 2.23, 1.62, 7.25, repro,
2006-08-15,-0.40, 0.10, 24.53, 2.26, 1.57, 7.15, repro,
2006-08-16,0.96, -0.90, 17.76, 2.21, 1.59, 7.18, repro,
2006-08-17,0.40, 0.44, 19.10, 2.19, 1.55, 7.06, repro,
2006-08-18,-1.81, 1.39, 13.54, 2.23, 1.61, 7.21, repro,
2006-08-19,-0.56, 0.46, 14.85, 2.19, 1.57, 7.10, repro,
2006-08-20,-1.85, 1.46, 23.11, 2.18, 1.56, 7.05, repro,
2006-08-21,-1.66, 0.68, 22.71, 2.19, 1.56, 7.10, repro,
2006-08-22,-2.46, 0.34, 20.18, 2.19, 1.57, 7.08, repro,
2006-08-23,-1.17, 0.06, 24.00, 2.21, 1.58, 7.12, repro,
2006-08-24,-1.64, 0.17, 22.57, 2.20, 1.58, 7.15, repro,
2006-08-25,-2.19, -0.09, 16.57, 2.24, 1.63, 7.36, repro,
2006-08-26,-1.00, 0.77, 18.80, 2.28, 1.65, 7.50, repro,
2006-08-27,-0.40, 0.81, 17.45, 2.28, 1.66, 7.53, repro,
2006-08-28,-1.88, 0.41, 15.43, 2.30, 1.67, 7.54, repro,
2006-08-29,0.28, 0.20, 17.31, 2.28, 1.68, 7.52, repro,
2006-08-30,-0.40, 0.39, 21.48, 2.25, 1.67, 7.47, repro,
2006-08-31,-0.64, 1.04, 12.61, 2.29, 1.67, 7.59, repro,
2006-09-01,-0.73, 0.67, 14.75, 2.28, 1.66, 7.52, repro,
2006-09-02,-0.88, 1.35, 18.81, 2.28, 1.66, 7.51, repro,
2006-09-03,-0.81, 0.46, 18.61, 2.28, 1.66, 7.49, repro,
2006-09-04,0.26, 0.04, 17.94, 2.34, 1.70, 7.68, repro,
2006-09-05,-0.94, 0.82, 12.21, 2.36, 1.71, 7.74, repro,
2006-09-06,-0.23, 0.80, 11.69, 2.28, 1.66, 7.52, repro,
2006-09-07,-0.91, 0.47, 19.76, 2.32, 1.71, 7.77, repro,
2006-09-08,-2.05, 0.21, 18.63, 2.32, 1.71, 7.75, repro,
2006-09-09,-2.59, -0.80, 22.70, 2.23, 1.63, 7.30, repro,
2006-09-10,-0.71, 0.38, 22.56, 2.24, 1.63, 7.36, repro,
2006-09-11,-0.65, 0.66, 17.51, 2.25, 1.62, 7.34, repro,
2006-09-12,-1.07, -0.14, 16.16, 2.24, 1.62, 7.30, repro,
2006-09-13,-0.04, -0.62, 22.98, 2.25, 1.63, 7.33, repro,
2006-09-14,0.22, -0.14, 25.84, 2.34, 1.72, 7.59, repro,
2006-09-15,-1.41, -1.31, 21.92, 2.27, 1.62, 7.25, repro,
2006-09-16,-0.45, 0.92, 18.07, 2.19, 1.58, 7.12, repro,
2006-09-17,-0.63, 0.03, 23.03, 2.21, 1.57, 7.12, repro,
2006-09-18,-0.26, 0.62, 23.37, 2.20, 1.56, 7.10, repro,
2006-09-19,-1.74, -0.20, 26.80, 2.21, 1.58, 7.19, repro,
2006-09-20,-1.45, -0.70, 17.14, 2.19, 1.57, 7.10, repro,
2006-09-21,-1.25, 0.53, 25.81, 2.25, 1.64, 7.33, repro,
2006-09-22,-1.03, 0.06, 19.59, 2.30, 1.66, 7.41, repro,
2006-09-23,-1.47, 0.41, 14.44, 2.25, 1.61, 7.23, repro,
2006-09-24,-0.03, -0.19, 17.14, 2.26, 1.61, 7.28, repro,
2006-09-25,-0.99, 0.06, 19.24, 2.21, 1.58, 7.13, repro,
2006-09-26,-1.59, -0.06, 19.88, 2.23, 1.60, 7.24, repro,
2006-09-27,-0.67, 0.85, 15.20, 2.26, 1.67, 7.33, repro,
2006-09-28,-2.30, 0.79, 19.66, 2.22, 1.59, 7.17, repro,
2006-09-29,-1.20, 0.25, 23.82, 2.22, 1.60, 7.20, repro,
2006-09-30,-2.25, -0.16, 27.77, 2.25, 1.63, 7.36, repro,
2006-10-01,-2.77, -0.00, 24.42, 2.25, 1.61, 7.27, repro,
2006-10-02,-1.88, 0.53, 15.14, 2.29, 1.67, 7.37, repro,
2006-10-03,-0.46, 0.16, 15.79, 2.31, 1.69, 7.51, repro,
2006-10-04,-0.49, 0.61, 18.82, 2.24, 1.59, 7.20, repro,
2006-10-05,-1.60, 1.21, 23.65, 2.22, 1.59, 7.15, repro,
2006-10-06,-1.73, 0.15, 13.40, 2.23, 1.58, 7.16, repro,
2006-10-07,-2.70, -0.15, 18.45, 2.29, 1.65, 7.41, repro,
2006-10-08,-0.59, 1.35, 15.61, 2.28, 1.65, 7.35, repro,
2006-10-09,-1.19, 1.29, 8.68, 2.28, 1.65, 7.36, repro,
2006-10-10,0.02, 0.20, 12.71, 2.26, 1.63, 7.39, repro,
2006-10-11,-1.82, 0.28, 20.26, 2.25, 1.62, 7.34, repro,
2006-10-12,-1.37, 0.82, 21.44, 2.23, 1.59, 7.19, repro,
2006-10-13,-1.34, 1.25, 21.24, 2.19, 1.59, 7.12, repro,
2006-10-14,-0.26, 0.33, 18.33, 2.24, 1.66, 7.46, repro,
2006-10-15,-1.19, 0.16, 26.85, 2.27, 1.70, 7.47, repro,
2006-10-16,-1.72, -0.49, 29.18, 2.19, 1.58, 7.11, repro,
2006-10-17,-0.53, 0.84, 26.90, 2.25, 1.65, 7.54, repro,
2006-10-18,-1.65, 1.06, 18.42, 2.19, 1.58, 7.12, repro,
2006-10-19,-0.39, 0.37, 20.37, 2.20, 1.63, 7.35, repro,
2006-10-20,-1.00, 0.63, 13.85, 2.55, 1.87, 8.52, repro,
2006-10-21,-1.98, 1.10, 13.83, 2.34, 1.68, 7.63, repro,
2006-10-22,-2.95, 1.29, 14.63, 2.26, 1.66, 7.50, repro,
2006-10-23,-2.55, 0.87, 15.08, 2.33, 1.69, 7.69, repro,
2006-10-24,-1.47, 1.93, 15.83, 2.40, 1.70, 7.82, repro,
2006-10-25,-2.33, 1.58, 15.00, 2.30, 1.69, 7.55, repro,
2006-10-26,-1.32, 0.62, 19.21, 2.24, 1.67, 7.47, repro,
2006-10-27,-1.37, -0.29, 11.36, 2.19, 1.62, 7.19, repro,
2006-10-28,-1.29, 1.02, 11.96, 2.28, 1.62, 7.45, repro,
2006-10-29,0.25, 0.27, 16.98, 2.21, 1.61, 7.32, repro,
2006-10-30,0.45, 0.08, 13.43, 2.15, 1.58, 7.12, repro,
2006-10-31,-0.73, 0.35, 12.30, 2.20, 1.61, 7.28, repro,
2006-11-01,-0.80, 0.74, 9.26, 2.40, 1.73, 7.92, repro,
2006-11-02,-1.84, 0.21, 16.68, 2.20, 1.60, 7.28, repro,
2006-11-03,-2.76, 0.82, 20.41, 2.21, 1.63, 7.31, repro,
2006-11-04,-1.35, 0.54, 13.86, 2.26, 1.66, 7.43, repro,
2006-11-05,-1.08, 1.73, 16.83, 2.24, 1.65, 7.35, repro,
2006-11-06,0.02, 3.13, 8.76, 2.20, 1.60, 7.28, repro,
2006-11-07,-1.47, 2.51, 9.75, 2.38, 1.73, 7.72, repro,
2006-11-08,-2.72, 0.62, 26.80, 2.35, 1.69, 7.60, repro,
2006-11-09,0.25, 0.74, 16.88, 2.38, 1.73, 7.69, repro,
2006-11-10,-0.30, -0.32, 18.88, 2.23, 1.61, 7.17, repro,
2006-11-11,-1.25, 0.06, 15.77, 2.32, 1.65, 7.44, repro,
2006-11-12,-1.20, 1.81, 13.24, 2.37, 1.70, 7.54, repro,
2006-11-13,-4.46, 0.35, 24.62, 2.31, 1.66, 7.40, repro,
2006-11-14,-1.28, -1.55, 19.88, 2.19, 1.58, 7.15, repro,
2006-11-15,-0.03, 0.36, 13.03, 2.15, 1.57, 7.08, repro,
2006-11-16,-1.11, 0.50, 15.79, 2.16, 1.58, 7.13, repro,
2006-11-17,-1.42, -0.24, 13.43, 2.18, 1.58, 7.13, repro,
2006-11-18,-1.01, -0.57, 12.21, 2.23, 1.65, 7.44, repro,
2006-11-19,-2.08, 0.78, 11.06, 2.16, 1.58, 7.11, repro,
2006-11-20,-3.07, 0.54, 14.70, 2.15, 1.57, 7.09, repro,
2006-11-21,-0.72, -0.85, 24.84, 2.13, 1.57, 7.00, repro,
2006-11-22,-0.44, -0.86, 19.41, 2.14, 1.57, 7.01, repro,
2006-11-23,-2.68, 0.32, 11.47, 2.20, 1.63, 7.29, repro,
2006-11-24,-0.94, -1.06, 14.23, 2.20, 1.62, 7.26, repro,
2006-11-25,0.87, 0.14, 8.76, 2.15, 1.58, 7.10, repro,
2006-11-26,-0.81, 1.26, 11.29, 2.20, 1.59, 7.15, repro,
2006-11-27,-1.39, -0.02, 13.41, 2.22, 1.64, 7.25, repro,
2006-11-28,-1.84, 0.09, 17.15, 2.16, 1.58, 7.07, repro,
2006-11-29,-1.17, 0.17, 9.91, 2.15, 1.58, 7.04, repro,
2006-11-30,-1.92, -0.24, 6.50, 2.16, 1.58, 7.11, repro,
2006-12-01,-1.08, 0.78, 3.87, 2.15, 1.58, 7.09, repro,
2006-12-02,-1.19, 0.77, 0.96, 2.19, 1.59, 7.19, repro,
2006-12-03,-1.80, 0.37, 3.43, 2.15, 1.58, 7.05, repro,
2006-12-04,-1.36, -0.22, 2.44, 2.19, 1.59, 7.10, repro,
2006-12-05,-1.48, -0.16, 7.50, 2.30, 1.73, 7.66, repro,
2006-12-06,-0.19, 0.40, 8.04, 2.24, 1.69, 7.47, repro,
2006-12-07,-1.57, 1.07, 6.51, 2.20, 1.63, 7.29, repro,
2006-12-08,-1.82, 0.03, 9.80, 2.21, 1.63, 7.30, repro,
2006-12-09,-0.57, 0.33, 15.07, 2.27, 1.72, 7.52, repro,
2006-12-10,-0.23, -0.18, 15.14, 2.23, 1.64, 7.29, repro,
2006-12-11,-1.37, 0.03, 15.99, 2.21, 1.61, 7.21, repro,
2006-12-12,-0.97, -0.21, 17.42, 2.26, 1.65, 7.40, repro,
2006-12-13,-1.60, 0.15, 19.17, 2.26, 1.68, 7.54, repro,
2006-12-14,-0.69, -0.06, 13.04, 2.16, 1.59, 7.12, repro,
2006-12-15,-1.86, 2.60, 14.10, 2.29, 1.71, 7.65, repro,
2006-12-16,-0.00, -1.28, 15.39, 2.23, 1.66, 7.32, repro,
2006-12-17,-1.15, -0.03, 10.97, 2.34, 1.79, 8.03, repro,
2006-12-18,-1.19, -0.09, 12.20, 2.53, 1.87, 8.53, repro,
2006-12-19,-1.56, -0.62, 12.77, 2.27, 1.73, 7.67, repro,
2006-12-20,-1.28, -0.16, 6.84, 2.29, 1.74, 7.56, repro,
2006-12-21,-0.35, 0.30, 8.55, 2.16, 1.68, 7.31, repro,
2006-12-22,-0.84, -0.15, 10.00, 2.38, 1.88, 8.27, repro,
2006-12-23,0.61, 0.32, 8.26, 2.26, 1.69, 7.56, repro,
2006-12-24,-0.27, -0.14, 5.24, 2.17, 1.60, 7.10, repro,
2006-12-25,-2.13, 0.12, 2.74, 2.23, 1.70, 7.45, repro,
2006-12-26,-1.31, -0.43, 9.45, 2.23, 1.69, 7.47, repro,
2006-12-27,-1.62, -0.81, 14.49, 2.23, 1.70, 7.51, repro,
2006-12-28,-0.53, 0.46, 9.48, 2.44, 1.89, 8.30, repro,
2006-12-29,-0.21, -1.17, 1.13, 2.31, 1.77, 7.83, repro,
2006-12-30,-1.25, -0.28, 5.54, 2.23, 1.69, 7.44, repro,
2006-12-31,-0.70, -0.22, -0.98, 2.41, 1.86, 8.19, repro,
2007-01-01,-1.33, 0.23, 3.19, 2.27, 1.74, 7.64, repro,
2007-01-02,-6.59, 1.31, 6.09, 2.27, 1.78, 7.79, repro,
2007-01-03,0.20, -0.57, 21.74, 2.21, 1.71, 7.55, repro,
2007-01-04,0.21, -1.38, 11.40, 2.16, 1.63, 7.22, repro,
2007-01-05,-1.34, -0.67, 5.90, 2.18, 1.67, 7.34, repro,
2007-01-06,0.08, -0.88, 7.91, 2.16, 1.66, 7.27, repro,
2007-01-07,-2.34, -0.86, 4.56, 2.19, 1.62, 7.15, repro,
2007-01-08,-1.25, -1.34, -0.40, 2.22, 1.66, 7.32, repro,
2007-01-09,-1.40, -0.76, 0.73, 2.21, 1.62, 7.22, repro,
2007-01-10,-1.07, -0.56, 13.95, 2.22, 1.61, 7.19, repro,
2007-01-11,0.94, -0.83, 9.55, 2.26, 1.61, 7.20, repro,
2007-01-12,-1.23, -0.61, 1.25, 2.16, 1.57, 7.03, repro,
2007-01-13,-1.03, -0.26, -0.34, 2.11, 1.56, 6.93, repro,
2007-01-14,-0.46, -0.36, -3.05, 2.13, 1.56, 6.94, repro,
2007-01-15,-0.51, -1.19, -5.47, 2.14, 1.57, 7.02, repro,
2007-01-16,0.62, -1.19, -0.32, 2.17, 1.57, 7.04, repro,
2007-01-17,-1.01, -1.19, -2.61, 2.12, 1.56, 6.92, repro,
2007-01-18,-0.63, -0.37, -8.37, 2.16, 1.60, 7.11, repro,
2007-01-19,-0.32, -0.75, -2.64, 2.18, 1.57, 7.14, repro,
2007-01-20,0.02, -0.69, 3.75, 2.16, 1.58, 7.10, repro,
2007-01-21,-1.12, -0.53, 4.56, 2.11, 1.56, 6.90, repro,
2007-01-22,-0.20, -1.29, 2.83, 2.13, 1.56, 6.94, repro,
2007-01-23,0.06, -0.79, -1.85, 2.14, 1.57, 6.97, repro,
2007-01-24,-0.87, 0.48, -0.35, 2.12, 1.56, 6.93, repro,
2007-01-25,-1.14, -0.93, 1.22, 2.19, 1.59, 7.05, repro,
2007-01-26,0.05, -0.87, -0.50, 2.10, 1.54, 6.79, repro,
2007-01-27,-1.11, -0.63, 1.02, 2.14, 1.56, 6.94, repro,
2007-01-28,0.16, -0.56, -1.74, 2.13, 1.56, 6.94, repro,
2007-01-29,-1.00, -0.58, -3.72, 2.14, 1.55, 6.92, repro,
2007-01-30,0.39, -0.55, 1.69, 2.10, 1.54, 6.83, repro,
2007-01-31,-0.75, -0.87, 8.15, 2.10, 1.54, 6.77, repro,
2007-02-01,-0.59, -0.84, 8.16, 2.15, 1.59, 7.01, repro,
2007-02-02,-0.72, -0.75, 2.97, 2.18, 1.58, 7.06, repro,
2007-02-03,-0.82, -0.50, 1.62, 2.17, 1.57, 7.05, repro,
2007-02-04,1.27, -2.72, 1.29, 2.11, 1.56, 6.90, repro,
2007-02-05,-0.93, 0.42, 2.92, 2.10, 1.54, 6.78, repro,
2007-02-06,-1.11, -0.53, 4.64, 2.11, 1.55, 6.83, repro,
2007-02-07,-0.98, -0.68, 3.26, 2.13, 1.56, 6.89, repro,
2007-02-08,-0.66, -0.01, 3.83, 2.18, 1.63, 7.17, repro,
2007-02-09,0.75, 0.36, -0.40, 2.15, 1.61, 7.05, repro,
2007-02-10,0.43, -0.40, 8.93, 2.09, 1.54, 6.80, repro,
2007-02-11,0.17, -0.91, 14.04, 2.11, 1.54, 6.82, repro,
2007-02-12,0.69, -0.24, -1.79, 2.11, 1.56, 6.89, repro,
2007-02-13,-0.53, -0.04, -0.32, 2.13, 1.56, 6.94, repro,
2007-02-14,0.22, 0.29, 0.72, 2.13, 1.57, 6.96, repro,
2007-02-15,0.86, -0.35, 2.77, 2.11, 1.55, 6.88, repro,
2007-02-16,-0.43, -1.15, 12.03, 2.12, 1.55, 6.86, repro,
2007-02-17,-0.20, -0.00, 9.07, 2.16, 1.58, 7.01, repro,
2007-02-18,-1.55, -0.55, 17.52, 2.12, 1.55, 6.92, repro,
2007-02-19,-1.10, -0.44, 18.61, 2.14, 1.57, 7.01, repro,
2007-02-20,-0.17, -2.01, 20.82, 2.13, 1.55, 6.88, repro,
2007-02-21,1.11, -0.17, 15.35, 2.12, 1.55, 6.88, repro,
2007-02-22,0.64, -0.75, 8.08, 2.13, 1.55, 6.92, repro,
2007-02-23,0.12, -0.05, 10.56, 2.21, 1.64, 7.24, repro,
2007-02-24,-1.12, -0.82, 8.55, 2.12, 1.55, 6.87, repro,
2007-02-25,-0.74, -0.72, 13.00, 2.14, 1.57, 6.96, repro,
2007-02-26,-0.06, -0.70, 12.42, 2.15, 1.56, 6.94, repro,
2007-02-27,0.43, 0.02, 15.81, 2.15, 1.56, 6.95, repro,
2007-02-28,-0.71, 0.15, 17.05, 2.12, 1.55, 6.92, repro,
2007-03-01,-1.08, 0.48, 14.44, 2.19, 1.62, 7.10, repro,
2007-03-02,-0.83, -0.34, 3.66, 2.20, 1.63, 7.19, repro,
2007-03-03,-1.44, 0.58, -3.32, 2.19, 1.60, 7.08, repro,
2007-03-04,-0.43, -0.39, 1.94, 2.18, 1.60, 7.08, repro,
2007-03-05,-0.37, 0.15, 3.45, 2.20, 1.60, 7.15, repro,
2007-03-06,-1.27, -0.62, 4.91, 2.19, 1.60, 7.09, repro,
2007-03-07,-2.26, -0.21, 5.52, 2.17, 1.59, 7.03, repro,
2007-03-08,-0.92, 1.02, 11.49, 2.20, 1.60, 7.12, repro,
2007-03-09,-1.73, -0.78, 12.39, 2.19, 1.59, 7.04, repro,
2007-03-10,-0.42, -1.39, 10.85, 2.31, 1.65, 7.47, repro,
2007-03-11,0.33, -1.87, -3.01, 6.74, 4.43, 22.16, repro,
2007-04-06,-1.56, 2.71, 10.26, 4.37, 3.14, 13.68, repro,
2007-04-07,0.04, -0.55, 10.27, 2.20, 1.57, 6.99, repro,
2007-04-08,0.27, -0.70, 9.82, 2.15, 1.54, 6.88, repro,
2007-04-09,-0.46, -1.32, 14.74, 2.15, 1.54, 6.88, repro,
2007-04-10,-1.52, -1.00, 13.42, 2.25, 1.62, 7.16, repro,
2007-04-11,-0.60, 0.01, 9.12, 2.15, 1.55, 6.89, repro,
2007-04-12,-1.16, -0.96, 12.30, 2.16, 1.54, 6.87, repro,
2007-04-13,-1.29, -0.86, 6.81, 2.16, 1.54, 6.91, repro,
2007-04-14,-1.17, -0.77, 10.97, 2.16, 1.55, 6.88, repro,
2007-04-15,-1.27, -0.81, 4.94, 2.15, 1.54, 6.86, repro,
2007-04-16,-1.75, -0.79, 12.01, 2.15, 1.54, 6.87, repro,
2007-04-17,-0.71, 0.37, 3.62, 2.17, 1.55, 6.91, repro,
2007-04-18,0.08, -0.38, 7.49, 2.16, 1.55, 6.96, repro,
2007-04-19,-0.56, -0.88, 9.64, 2.18, 1.58, 7.08, repro,
2007-04-20,-0.93, -0.71, 8.37, 2.18, 1.58, 7.09, repro,
2007-04-21,-0.36, -0.27, 11.32, 2.19, 1.60, 7.06, repro,
2007-04-22,-0.37, -0.87, 11.62, 2.17, 1.55, 6.93, repro,
2007-04-23,-0.84, -0.31, 9.07, 2.19, 1.57, 7.03, repro,
2007-04-24,0.27, -0.57, 2.96, 2.22, 1.56, 7.06, repro,
2007-04-25,-0.38, -0.55, 11.30, 2.19, 1.57, 7.04, repro,
2007-04-26,-0.99, -0.16, 7.99, 2.20, 1.58, 7.10, repro,
2007-04-27,-0.60, -0.06, 11.58, 2.15, 1.55, 6.94, repro,
2007-04-28,-2.06, -0.24, 8.64, 2.17, 1.55, 7.01, repro,
2007-04-29,-1.72, -1.68, 7.70, 2.18, 1.55, 7.02, repro,
2007-04-30,-1.01, -1.31, 7.05, 2.24, 1.59, 7.20, repro,
2007-05-01,-1.63, -0.12, 5.86, 2.16, 1.53, 6.93, repro,
2007-05-02,-1.53, -0.05, 10.33, 2.22, 1.55, 7.10, repro,
2007-05-03,-0.58, -0.57, 8.83, 2.22, 1.56, 7.10, repro,
2007-05-04,-1.36, -0.84, 5.84, 2.18, 1.54, 7.00, repro,
2007-05-05,-0.92, -1.59, 8.24, 2.21, 1.58, 7.22, repro,
2007-05-06,-0.34, -0.28, 1.42, 2.19, 1.53, 6.98, repro,
2007-05-07,-0.92, 0.50, 9.31, 2.18, 1.53, 6.94, repro,
2007-05-08,0.23, -0.94, 8.51, 2.17, 1.53, 6.93, repro,
2007-05-09,-0.06, -0.48, 7.40, 2.19, 1.54, 6.97, repro,
2007-05-10,-0.01, -0.61, 1.34, 2.30, 1.61, 7.47, repro,
2007-05-11,-1.07, -0.94, 2.04, 2.30, 1.62, 7.48, repro,
2007-05-12,-0.67, -0.59, 11.30, 2.18, 1.54, 6.98, repro,
2007-05-13,0.89, -0.86, 7.45, 2.22, 1.57, 7.04, repro,
2007-05-14,-0.90, 0.17, 2.34, 2.21, 1.57, 7.08, repro,
2007-05-15,-1.01, -0.58, 7.41, 2.25, 1.60, 7.24, repro,
2007-05-16,-1.62, -0.92, 7.60, 2.25, 1.60, 7.19, repro,